1971-067 DEB            
1 05384U 71067N   19264.30035436  .00000057  00000-0  16332-4 0  9998
2 05384  87.6318 340.1642 0082065 143.1433 217.5439 14.23755154493166
1971-067 AKM            
1 05395U 71067K   19264.47216193  .00000142  00000-0  41037-4 0  9994
2 05395  87.6137 282.6886 0057337 303.1002  56.4700 14.37238139503944
OV1-21                  
1 05397U 71067B   19264.83693649  .00000040  00000-0  10275-4 0  9998
2 05397  87.6352  12.0325 0083068 162.2755 198.1362 14.17488766486069
RIGIDSPHERE 2 (LCS 4)   
1 05398U 71067E   19264.52126703  .00000114  00000-0  33240-4 0  9996
2 05398  87.6180 298.6394 0065731  83.1446 277.7224 14.33821015521193